EW7337 Weather Reports


Display with metric or nautical units.
time (UTC)temp
F
wind
direction
speed
MPH
gust
MPH
rain 1hr
in
rain 24hr
in
rain mn
in
humidity
%
barometer
mb
20260503174107 61 302 0.0 0.0 0.00 0.00 0.00 90 1017.0
20260503173605 61 302 0.0 0.0 0.00 0.00 0.00 90 1017.0
20260503173109 61 302 0.0 0.0 0.00 0.00 0.00 90 1016.9
20260503172609 61 302 0.0 0.0 0.00 0.00 0.00 89 1017.1
20260503172105 61 302 0.0 0.0 0.00 0.00 0.00 89 1017.2
20260503171610 61 302 0.0 0.0 0.00 0.00 0.00 89 1017.3
20260503171112 62 302 0.0 0.0 0.00 0.00 0.00 89 1017.2
20260503170608 62 302 0.0 0.0 0.00 0.00 0.00 89 1017.3
20260503170115 62 302 0.0 0.0 0.00 0.00 0.00 89 1017.2
20260503160112 63 280 0.0 2.0 0.00 0.00 0.00 88 1018.1
20260503150616 64 53 0.0 0.0 0.00 0.00 0.00 86 1018.2
20260503150110 64 53 0.0 0.0 0.00 0.00 0.00 86 1018.4
20260503140114 65 346 0.0 0.0 0.00 0.00 0.00 85 1018.9
20260503131108 66 58 1.0 5.0 0.00 0.00 0.00 85 1019.2
20260503130610 66 55 2.0 5.0 0.00 0.00 0.00 85 1019.2
20260503130522 66 25 1.0 5.0 0.00 0.00 0.00 85 1019.2
20260503120109 67 24 2.0 7.0 0.00 0.00 0.00 85 1019.8
20260503110518 67 35 2.0 8.0 0.00 0.00 0.00 85 1019.7
20260503110419 68 40 2.0 8.0 0.00 0.00 0.00 85 1019.7
20260503090120 69 355 2.0 12.0 0.00 0.00 0.00 82 1019.4
20260503081234 70 46 4.0 9.0 0.00 0.00 0.00 79 1019.2
20260503080736 70 34 1.0 8.0 0.00 0.00 0.00 78 1019.2
20260503080234 70 51 4.0 7.0 0.00 0.00 0.00 78 1019.1
20260503072825 71 55 5.0 12.0 0.00 0.00 0.00 75 1019.0
20260503071705 72 52 5.0 10.0 0.00 0.00 0.00 75 1019.2
20260503071203 72 55 3.0 6.0 0.00 0.00 0.00 74 1019.2
20260503070703 72 35 3.0 9.0 0.00 0.00 0.00 74 1019.2
20260503070526 72 9 2.0 10.0 0.00 0.00 0.00 74 1019.3
20260503060146 76 82 6.0 15.0 0.00 0.00 0.00 68 1019.5
20260503055018 76 39 2.0 12.0 0.00 0.00 0.00 67 1019.3
20260503054136 77 5 4.0 14.0 0.00 0.00 0.00 67 1019.4
20260503053636 76 49 4.0 14.0 0.00 0.00 0.00 66 1019.4
20260503053134 77 86 6.0 13.0 0.00 0.00 0.00 66 1019.5
20260503052634 77 79 7.0 13.0 0.00 0.00 0.00 65 1019.4
20260503052136 77 30 6.0 14.0 0.00 0.00 0.00 64 1019.6
20260503051631 78 34 9.0 14.0 0.00 0.00 0.00 63 1019.4
20260503051132 79 65 4.0 13.0 0.00 0.00 0.00 61 1019.6
20260503050644 79 355 2.0 9.0 0.00 0.00 0.00 63 1019.6
20260503050131 78 79 3.0 10.0 0.00 0.00 0.00 62 1019.7
20260503045631 79 74 5.0 10.0 0.00 0.00 0.00 60 1019.7
20260503045131 78 113 4.0 7.0 0.00 0.00 0.00 61 1019.8
20260503044626 78 69 2.0 9.0 0.00 0.00 0.00 61 1019.8
20260503044122 78 92 4.0 9.0 0.00 0.00 0.00 61 1019.9
20260503043622 78 39 5.0 11.0 0.00 0.00 0.00 60 1019.9
20260503043115 79 51 5.0 11.0 0.00 0.00 0.00 59 1019.8
20260503042616 79 331 2.0 9.0 0.00 0.00 0.00 59 1019.9
20260503042115 78 78 2.0 11.0 0.00 0.00 0.00 59 1019.9
20260503041610 79 34 4.0 11.0 0.00 0.00 0.00 58 1019.9
20260503041409 79 104 4.0 8.0 0.00 0.00 0.00 58 1020.0
20260503041225 79 87 2.0 8.0 0.00 0.00 0.00 58 1020.0
20260503040108 78 64 3.0 9.0 0.00 0.00 0.00 57 1020.1
20260503035609 78 31 3.0 10.0 0.00 0.00 0.00 57 1020.0
20260503035110 78 30 5.0 10.0 0.00 0.00 0.00 55 1020.2
20260503034606 78 352 3.0 9.0 0.00 0.00 0.00 55 1020.1
20260503034103 78 123 2.0 7.0 0.00 0.00 0.00 56 1020.2
20260503033947 78 120 2.0 10.0 0.00 0.00 0.00 57 1020.3
20260503033104 78 64 5.0 12.0 0.00 0.00 0.00 55 1020.3
20260503032603 78 35 6.0 12.0 0.00 0.00 0.00 55 1020.3
20260503032105 78 63 5.0 11.0 0.00 0.00 0.00 54 1020.5
20260503031604 78 51 3.0 9.0 0.00 0.00 0.00 56 1020.5
20260503031102 78 0 4.0 9.0 0.00 0.00 0.00 55 1020.6
20260503030605 78 126 3.0 12.0 0.00 0.00 0.00 55 1020.8
20260503030107 78 82 5.0 12.0 0.00 0.00 0.00 54 1020.8
20260503025609 78 94 6.0 12.0 0.00 0.00 0.00 54 1020.8
20260503025114 78 59 6.0 11.0 0.00 0.00 0.00 54 1021.1
20260503024614 78 58 6.0 12.0 0.00 0.00 0.00 55 1021.1
20260503024111 78 36 4.0 13.0 0.00 0.00 0.00 55 1021.2
20260503023605 78 109 6.0 13.0 0.00 0.00 0.00 54 1021.2
20260503023103 78 68 5.0 11.0 0.00 0.00 0.00 53 1021.3
20260503022604 78 36 4.0 11.0 0.00 0.00 0.00 55 1021.3
20260503022103 77 90 3.0 12.0 0.00 0.00 0.00 55 1021.4
20260503021559 78 25 6.0 12.0 0.00 0.00 0.00 54 1021.7
20260503021100 77 26 5.0 12.0 0.00 0.00 0.00 55 1021.7
20260503020934 77 61 7.0 12.0 0.00 0.00 0.00 55 1021.7
20260503020055 77 35 6.0 11.0 0.00 0.00 0.00 55 1022.1
20260503015553 76 333 6.0 10.0 0.00 0.00 0.00 56 1022.0
20260503015051 76 69 6.0 11.0 0.00 0.00 0.00 56 1022.1
20260503014551 76 44 7.0 11.0 0.00 0.00 0.00 55 1022.2
20260503014045 76 14 5.0 13.0 0.00 0.00 0.00 56 1022.2
20260503013547 76 352 6.0 15.0 0.00 0.00 0.00 56 1022.4
20260503013047 76 59 5.0 15.0 0.00 0.00 0.00 56 1022.3
20260503012551 76 15 5.0 11.0 0.00 0.00 0.00 56 1022.5
20260503012049 76 32 4.0 11.0 0.00 0.00 0.00 57 1022.7
20260503011545 76 5 6.0 11.0 0.00 0.01 0.00 58 1022.7
20260503011323 75 53 7.0 12.0 0.00 0.01 0.00 59 1022.5
20260503011229 76 23 7.0 13.0 0.00 0.01 0.00 58 1022.7
20260503010031 75 64 4.0 11.0 0.00 0.01 0.00 61 1022.8
20260503005546 74 25 6.0 10.0 0.00 0.01 0.00 62 1023.0
20260503005535 75 58 6.0 10.0 0.00 0.01 0.00 60 1023.0
20260503005116 75 57 4.0 11.0 0.00 0.01 0.00 61 1023.0
20260503003533 74 0 4.0 10.0 0.00 0.01 0.00 64 1023.2
20260503003244 73 43 5.0 14.0 0.00 0.01 0.00 64 1023.2
20260503003156 74 22 3.0 14.0 0.00 0.01 0.00 64 1023.1
20260503002412 73 308 6.0 13.0 0.00 0.01 0.00 64 1023.2
20260503001539 74 36 3.0 12.0 0.00 0.01 0.00 66 1023.1
20260503001036 73 24 5.0 9.0 0.00 0.01 0.00 67 1023.1
20260503000537 73 317 6.0 11.0 0.00 0.01 0.00 67 1023.1
20260503000407 72 10 6.0 12.0 0.00 0.01 0.00 67 1023.3
20260502235904 72 45 4.0 12.0 0.00 0.01 0.00 69 1023.2
20260502235031 72 30 5.0 10.0 0.00 0.01 0.00 69 1023.3
20260502234534 71 42 6.0 10.0 0.00 0.01 0.00 70 1023.3
20260502234031 71 34 5.0 8.0 0.00 0.01 0.00 71 1023.5
20260502233533 71 41 2.0 6.0 0.00 0.01 0.00 72 1023.7
20260502233031 71 19 2.0 8.0 0.00 0.01 0.00 73 1023.8
20260502232532 71 25 4.0 11.0 0.00 0.01 0.00 74 1023.8
20260502232144 70 306 3.0 6.0 0.00 0.01 0.00 77 1024.0
20260502232139 70 346 0.0 5.0 0.00 0.01 0.00 76 1023.9
20260502232106 70 42 6.0 11.0 0.00 0.01 0.00 74 1023.9
20260502230540 69 317 3.0 6.0 0.00 0.01 0.00 78 1024.0
20260502230351 69 328 2.0 6.0 0.00 0.01 0.00 79 1024.1
20260502225532 68 346 4.0 6.0 0.00 0.01 0.00 80 1024.0
20260502225353 67 39 3.0 6.0 0.00 0.01 0.00 82 1023.9
20260502224533 67 309 2.0 6.0 0.00 0.01 0.00 85 1024.1
20260502224031 66 294 0.0 5.0 0.00 0.01 0.00 86 1024.1
20260502223534 65 290 2.0 5.0 0.00 0.01 0.00 88 1024.1
20260502223034 65 333 2.0 5.0 0.00 0.01 0.00 89 1024.1
20260502222741 64 279 0.0 3.0 0.00 0.01 0.00 92 1024.0
20260502222647 65 320 3.0 5.0 0.00 0.01 0.00 90 1023.9
20260502221536 64 279 1.0 4.0 0.00 0.01 0.00 93 1024.0
20260502221036 62 340 2.0 5.0 0.00 0.01 0.00 94 1023.9
20260502220537 61 5 2.0 5.0 0.00 0.01 0.00 93 1023.8
20260502220413 61 30 2.0 4.0 0.00 0.01 0.00 93 1023.7
20260502215535 60 296 1.0 1.0 0.00 0.01 0.00 93 1023.6
20260502215036 60 296 0.0 1.0 0.00 0.01 0.00 93 1023.6
20260502214538 60 296 0.0 2.0 0.00 0.01 0.00 93 1023.7
20260502214035 60 296 1.0 2.0 0.00 0.01 0.00 93 1023.7
20260502213537 60 296 2.0 2.0 0.00 0.01 0.00 93 1023.6
20260502213036 59 296 0.0 3.0 0.00 0.01 0.00 92 1023.4
20260502212535 59 296 1.0 3.0 0.00 0.01 0.00 92 1023.3
20260502211532 59 296 0.0 1.0 0.00 0.01 0.00 92 1023.4
20260502211032 59 296 0.0 1.0 0.00 0.01 0.00 92 1023.3
20260502210533 59 296 1.0 1.0 0.00 0.01 0.00 92 1023.4
20260502210032 59 296 0.0 1.0 0.00 0.01 0.00 92 1023.4
20260502205534 59 296 0.0 2.0 0.00 0.01 0.00 92 1023.3
20260502205030 59 296 1.0 2.0 0.00 0.01 0.00 92 1023.2
20260502204535 59 296 0.0 0.0 0.00 0.01 0.00 92 1023.2
20260502204030 59 296 0.0 0.0 0.00 0.01 0.00 92 1023.1
20260502203528 59 296 0.0 0.0 0.00 0.01 0.00 92 1023.3
20260502203022 59 296 0.0 2.0 0.00 0.01 0.00 91 1023.2
20260502202511 59 296 1.0 2.0 0.00 0.01 0.00 91 1023.3
20260502202006 59 296 1.0 2.0 0.00 0.01 0.00 91 1023.4
20260502201505 59 296 1.0 2.0 0.00 0.01 0.00 91 1023.4
20260502201006 60 296 0.0 0.0 0.00 0.01 0.00 91 1023.4
20260502200926 60 296 0.0 0.0 0.00 0.01 0.00 91 1023.4
20260502200018 60 296 0.0 2.0 0.00 0.01 0.00 91 1023.3
20260502195507 60 296 0.0 3.0 0.00 0.01 0.00 91 1023.3
20260502195009 60 296 2.0 3.0 0.00 0.01 0.00 91 1023.3
20260502194506 60 355 0.0 1.0 0.00 0.01 0.00 91 1023.3
20260502194004 60 355 0.0 1.0 0.00 0.01 0.00 91 1023.1
20260502193504 60 352 0.0 2.0 0.00 0.01 0.00 91 1023.1
20260502193003 60 352 0.0 2.0 0.00 0.01 0.00 91 1023.2
20260502192503 60 355 0.0 3.0 0.00 0.01 0.00 91 1023.2
20260502192003 60 318 0.0 3.0 0.00 0.01 0.00 91 1023.1
20260502191503 60 322 0.0 2.0 0.00 0.01 0.00 91 1023.1
20260502191003 60 0 0.0 2.0 0.00 0.01 0.00 90 1023.1
20260502190507 60 37 0.0 1.0 0.00 0.01 0.00 90 1023.1
20260502190332 60 37 1.0 1.0 0.00 0.01 0.00 90 1023.0
20260502185507 61 37 0.0 0.0 0.00 0.01 0.00 91 1023.0
20260502185006 61 37 0.0 0.0 0.00 0.01 0.00 91 1022.8
20260502184506 61 37 0.0 1.0 0.00 0.01 0.00 91 1022.9
20260502184003 61 37 0.0 2.0 0.00 0.01 0.00 91 1023.0
20260502183521 61 37 0.0 2.0 0.00 0.01 0.00 90 1022.9
20260502183324 61 26 0.0 0.0 0.00 0.01 0.00 90 1023.1
20260502182503 61 26 0.0 0.0 0.00 0.01 0.00 90 1022.9
20260502182029 61 26 0.0 0.0 0.00 0.01 0.00 90 1023.1
20260502181617 61 26 0.0 0.0 0.00 0.01 0.00 90 1023.1
20260502180504 61 26 0.0 2.0 0.00 0.01 0.00 90 1023.0